| time (UTC) | temp F | wind direction | speed MPH | gust MPH | rain 1hr in | rain 24hr in | rain mn in | humidity % | barometer mb |
| 20260506210024 | 43 | 270 | 1.0 | 8.0 | 0.00 | 0.69 | 0.55 | 59 | 1019.8 |
| 20260506205511 | 43 | 270 | 2.0 | 5.0 | 0.00 | 0.70 | 0.55 | 57 | 1019.9 |
| 20260506205012 | 43 | 270 | 2.0 | 5.0 | 0.00 | 0.70 | 0.55 | 56 | 1019.9 |
| 20260506204527 | 44 | 270 | 1.0 | 5.0 | 0.00 | 0.71 | 0.55 | 54 | 1020.0 |
| 20260506204008 | 44 | 270 | 1.0 | 5.0 | 0.00 | 0.71 | 0.55 | 53 | 1020.0 |
| 20260506203508 | 44 | 270 | 0.0 | 5.0 | 0.00 | 0.71 | 0.55 | 56 | 1020.1 |
| 20260506203026 | 43 | 270 | 2.0 | 5.0 | 0.00 | 0.72 | 0.55 | 58 | 1020.2 |
| 20260506202511 | 43 | 270 | 0.0 | 6.0 | 0.00 | 0.72 | 0.55 | 58 | 1020.2 |
| 20260506201537 | 43 | 270 | 1.0 | 5.0 | 0.00 | 0.74 | 0.55 | 59 | 1020.2 |
| 20260506201008 | 43 | 270 | 0.0 | 4.0 | 0.00 | 0.74 | 0.55 | 60 | 1020.3 |
| 20260506200509 | 42 | 270 | 1.0 | 4.0 | 0.00 | 0.74 | 0.55 | 63 | 1020.4 |
| 20260506200027 | 41 | 270 | 0.0 | 5.0 | 0.00 | 0.74 | 0.55 | 64 | 1020.4 |
| 20260506195509 | 41 | 270 | 1.0 | 6.0 | 0.01 | 0.75 | 0.55 | 63 | 1020.4 |
| 20260506195016 | 41 | 270 | 1.0 | 6.0 | 0.02 | 0.75 | 0.55 | 64 | 1020.5 |
| 20260506194527 | 41 | 270 | 0.0 | 6.0 | 0.02 | 0.75 | 0.55 | 65 | 1020.4 |
| 20260506194012 | 41 | 270 | 2.0 | 6.0 | 0.03 | 0.76 | 0.55 | 65 | 1020.5 |
| 20260506193508 | 41 | 270 | 1.0 | 6.0 | 0.05 | 0.76 | 0.55 | 65 | 1020.5 |
| 20260506193026 | 42 | 270 | 0.0 | 5.0 | 0.06 | 0.77 | 0.55 | 64 | 1020.6 |
| 20260506192508 | 41 | 270 | 1.0 | 6.0 | 0.07 | 0.77 | 0.55 | 65 | 1020.6 |
| 20260506192010 | 41 | 270 | 1.0 | 6.0 | 0.08 | 0.77 | 0.55 | 65 | 1020.6 |
| 20260506191528 | 41 | 270 | 1.0 | 4.0 | 0.09 | 0.77 | 0.55 | 65 | 1020.6 |
| 20260506190020 | 40 | 270 | 0.0 | 4.0 | 0.11 | 0.78 | 0.55 | 66 | 1020.8 |
| 20260506185509 | 39 | 270 | 0.0 | 4.0 | 0.10 | 0.77 | 0.54 | 66 | 1020.7 |
| 20260506185011 | 41 | 270 | 0.0 | 2.0 | 0.10 | 0.76 | 0.52 | 66 | 1020.8 |
| 20260506184526 | 40 | 270 | 0.0 | 2.0 | 0.11 | 0.76 | 0.52 | 68 | 1020.9 |
| 20260506184011 | 40 | 270 | 0.0 | 3.0 | 0.11 | 0.75 | 0.52 | 67 | 1020.9 |
| 20260506183505 | 39 | 270 | 0.0 | 3.0 | 0.10 | 0.74 | 0.50 | 69 | 1020.9 |
| 20260506182506 | 39 | 285 | 0.0 | 3.0 | 0.11 | 0.73 | 0.48 | 65 | 1021.1 |
| 20260506181518 | 38 | 270 | 0.0 | 3.0 | 0.12 | 0.72 | 0.46 | 66 | 1021.2 |
| 20260506181008 | 39 | 270 | 1.0 | 3.0 | 0.14 | 0.73 | 0.46 | 65 | 1021.2 |
| 20260506180022 | 39 | 270 | 1.0 | 5.0 | 0.15 | 0.72 | 0.44 | 67 | 1021.4 |
| 20260506175510 | 39 | 270 | 0.0 | 5.0 | 0.17 | 0.72 | 0.44 | 69 | 1021.4 |
| 20260506175007 | 40 | 270 | 0.0 | 3.0 | 0.18 | 0.72 | 0.43 | 64 | 1021.4 |
| 20260506174523 | 40 | 270 | 1.0 | 3.0 | 0.18 | 0.72 | 0.42 | 67 | 1021.4 |
| 20260506174012 | 40 | 270 | 1.0 | 3.0 | 0.18 | 0.72 | 0.41 | 67 | 1021.4 |
| 20260506173504 | 40 | 319 | 0.0 | 2.0 | 0.18 | 0.71 | 0.40 | 67 | 1021.4 |
| 20260506173008 | 40 | 270 | 0.0 | 4.0 | 0.17 | 0.70 | 0.38 | 68 | 1021.4 |
| 20260506172504 | 40 | 270 | 0.0 | 4.0 | 0.17 | 0.70 | 0.37 | 68 | 1021.4 |
| 20260506172006 | 40 | 302 | 1.0 | 3.0 | 0.17 | 0.68 | 0.35 | 69 | 1021.4 |
| 20260506171511 | 40 | 270 | 0.0 | 3.0 | 0.17 | 0.68 | 0.34 | 67 | 1021.3 |
| 20260506170509 | 39 | 292 | 0.0 | 2.0 | 0.16 | 0.67 | 0.31 | 71 | 1021.3 |
| 20260506165508 | 38 | 270 | 0.0 | 4.0 | 0.13 | 0.65 | 0.27 | 73 | 1021.1 |
| 20260506164524 | 37 | 270 | 1.0 | 3.0 | 0.12 | 0.65 | 0.24 | 74 | 1021.2 |
| 20260506164014 | 37 | 270 | 1.0 | 5.0 | 0.12 | 0.65 | 0.23 | 77 | 1021.3 |
| 20260506163513 | 37 | 270 | 0.0 | 5.0 | 0.12 | 0.65 | 0.22 | 79 | 1021.3 |
| 20260506163036 | 37 | 270 | 2.0 | 5.0 | 0.11 | 0.65 | 0.21 | 79 | 1021.2 |
| 20260506162512 | 37 | 270 | 2.0 | 5.0 | 0.11 | 0.65 | 0.20 | 80 | 1021.0 |
| 20260506162004 | 37 | 270 | 3.0 | 5.0 | 0.10 | 0.65 | 0.18 | 81 | 1020.9 |
| 20260506161510 | 37 | 270 | 1.0 | 5.0 | 0.10 | 0.65 | 0.17 | 82 | 1020.7 |
| 20260506161004 | 36 | 270 | 0.0 | 4.0 | 0.09 | 0.66 | 0.16 | 83 | 1020.8 |
| 20260506160510 | 36 | 270 | 1.0 | 4.0 | 0.09 | 0.66 | 0.15 | 84 | 1020.8 |
| 20260506160016 | 35 | 270 | 1.0 | 5.0 | 0.09 | 0.66 | 0.14 | 84 | 1020.8 |
| 20260506155507 | 35 | 270 | 2.0 | 5.0 | 0.09 | 0.68 | 0.14 | 85 | 1020.7 |
| 20260506155010 | 35 | 270 | 2.0 | 4.0 | 0.08 | 0.68 | 0.13 | 86 | 1020.7 |
| 20260506154530 | 35 | 270 | 1.0 | 6.0 | 0.08 | 0.68 | 0.12 | 86 | 1020.7 |
| 20260506154012 | 35 | 270 | 1.0 | 6.0 | 0.07 | 0.69 | 0.11 | 87 | 1020.7 |
| 20260506153509 | 35 | 270 | 2.0 | 6.0 | 0.06 | 0.69 | 0.10 | 87 | 1020.6 |
| 20260506153024 | 34 | 270 | 2.0 | 6.0 | 0.06 | 0.70 | 0.10 | 88 | 1020.7 |
| 20260506152506 | 34 | 4 | 2.0 | 5.0 | 0.06 | 0.70 | 0.09 | 88 | 1020.6 |
| 20260506152012 | 34 | 275 | 1.0 | 7.0 | 0.05 | 0.70 | 0.08 | 89 | 1020.5 |
| 20260506151527 | 33 | 344 | 1.0 | 7.0 | 0.04 | 0.70 | 0.07 | 89 | 1020.6 |
| 20260506151011 | 33 | 5 | 1.0 | 8.0 | 0.04 | 0.72 | 0.07 | 89 | 1020.6 |
| 20260506150503 | 33 | 319 | 1.0 | 8.0 | 0.03 | 0.72 | 0.06 | 90 | 1020.6 |
| 20260506150013 | 33 | 247 | 1.0 | 5.0 | 0.02 | 0.72 | 0.05 | 90 | 1020.4 |
| 20260506145508 | 33 | 298 | 1.0 | 5.0 | 0.02 | 0.73 | 0.05 | 91 | 1020.4 |
| 20260506145006 | 32 | 238 | 0.0 | 2.0 | 0.02 | 0.73 | 0.05 | 91 | 1020.3 |
| 20260506144517 | 32 | 256 | 0.0 | 0.0 | 0.01 | 0.72 | 0.04 | 92 | 1020.4 |
| 20260506144006 | 32 | 258 | 0.0 | 0.0 | 0.01 | 0.72 | 0.04 | 92 | 1020.3 |
| 20260506143511 | 31 | 255 | 0.0 | 0.0 | 0.01 | 0.72 | 0.04 | 92 | 1020.3 |
| 20260506143021 | 31 | 172 | 0.0 | 0.0 | 0.01 | 0.72 | 0.04 | 92 | 1020.2 |
| 20260506142509 | 31 | 302 | 0.0 | 0.0 | 0.00 | 0.71 | 0.03 | 92 | 1020.1 |
| 20260506142009 | 31 | 292 | 0.0 | 0.0 | 0.00 | 0.71 | 0.03 | 92 | 1020.0 |
| 20260506141525 | 31 | 289 | 0.0 | 0.0 | 0.00 | 0.71 | 0.03 | 93 | 1020.0 |
| 20260506141011 | 31 | 287 | 0.0 | 0.0 | 0.01 | 0.71 | 0.03 | 93 | 1020.0 |
| 20260506140516 | 31 | 222 | 0.0 | 0.0 | 0.01 | 0.71 | 0.03 | 93 | 1020.0 |
| 20260506140025 | 31 | 270 | 0.0 | 0.0 | 0.01 | 0.71 | 0.03 | 93 | 1020.0 |
| 20260506135509 | 31 | 325 | 0.0 | 0.0 | 0.01 | 0.71 | 0.03 | 93 | 1020.0 |
| 20260506135006 | 31 | 297 | 0.0 | 0.0 | 0.01 | 0.71 | 0.03 | 93 | 1019.9 |
| 20260506134513 | 31 | 279 | 0.0 | 0.0 | 0.01 | 0.71 | 0.03 | 93 | 1019.9 |
| 20260506134006 | 31 | 42 | 0.0 | 0.0 | 0.01 | 0.71 | 0.03 | 93 | 1019.8 |
| 20260506133506 | 31 | 21 | 0.0 | 0.0 | 0.01 | 0.71 | 0.03 | 93 | 1019.7 |
| 20260506133015 | 31 | 306 | 0.0 | 0.0 | 0.01 | 0.71 | 0.03 | 93 | 1019.7 |
| 20260506132509 | 31 | 146 | 0.0 | 0.0 | 0.01 | 0.71 | 0.03 | 93 | 1019.6 |
| 20260506132007 | 31 | 275 | 0.0 | 0.0 | 0.01 | 0.71 | 0.03 | 93 | 1019.6 |
| 20260506131519 | 31 | 110 | 0.0 | 0.0 | 0.01 | 0.71 | 0.03 | 93 | 1019.5 |
| 20260506131008 | 31 | 312 | 0.0 | 0.0 | 0.00 | 0.70 | 0.02 | 93 | 1019.2 |
| 20260506130511 | 31 | 294 | 0.0 | 0.0 | 0.00 | 0.70 | 0.02 | 93 | 1019.2 |
| 20260506130024 | 31 | 248 | 0.0 | 0.0 | 0.00 | 0.70 | 0.02 | 93 | 1019.2 |
| 20260506125509 | 31 | 27 | 0.0 | 0.0 | 0.00 | 0.70 | 0.02 | 93 | 1019.2 |
| 20260506125010 | 31 | 279 | 0.0 | 0.0 | 0.00 | 0.70 | 0.02 | 93 | 1019.0 |
| 20260506124523 | 31 | 36 | 0.0 | 0.0 | 0.00 | 0.70 | 0.02 | 93 | 1018.9 |
| 20260506124009 | 31 | 36 | 0.0 | 0.0 | 0.00 | 0.70 | 0.02 | 93 | 1018.7 |
| 20260506123505 | 31 | 283 | 0.0 | 0.0 | 0.00 | 0.70 | 0.02 | 93 | 1018.7 |
| 20260506123010 | 31 | 283 | 0.0 | 0.0 | 0.00 | 0.70 | 0.02 | 93 | 1018.7 |
| 20260506122510 | 31 | 283 | 0.0 | 0.0 | 0.00 | 0.70 | 0.02 | 93 | 1018.6 |
| 20260506122007 | 31 | 283 | 0.0 | 0.0 | 0.00 | 0.70 | 0.02 | 93 | 1018.5 |
| 20260506121517 | 31 | 283 | 0.0 | 0.0 | 0.00 | 0.70 | 0.02 | 93 | 1018.6 |
| 20260506121010 | 31 | 283 | 0.0 | 0.0 | 0.00 | 0.71 | 0.02 | 93 | 1018.5 |
| 20260506120514 | 31 | 283 | 0.0 | 0.0 | 0.00 | 0.71 | 0.02 | 93 | 1018.4 |
| 20260506120030 | 31 | 283 | 0.0 | 0.0 | 0.00 | 0.72 | 0.02 | 93 | 1018.5 |
| 20260506115507 | 31 | 283 | 0.0 | 0.0 | 0.00 | 0.72 | 0.02 | 93 | 1018.5 |
| 20260506115012 | 31 | 283 | 0.0 | 0.0 | 0.00 | 0.73 | 0.02 | 93 | 1018.5 |
| 20260506114524 | 31 | 283 | 0.0 | 0.0 | 0.00 | 0.74 | 0.02 | 93 | 1018.4 |
| 20260506114009 | 31 | 283 | 0.0 | 0.0 | 0.00 | 0.75 | 0.02 | 94 | 1018.4 |
| 20260506113511 | 31 | 283 | 0.0 | 0.0 | 0.00 | 0.75 | 0.02 | 94 | 1018.4 |
| 20260506113024 | 31 | 349 | 0.0 | 0.0 | 0.00 | 0.75 | 0.02 | 93 | 1018.2 |
| 20260506112512 | 31 | 349 | 0.0 | 0.0 | 0.00 | 0.75 | 0.02 | 94 | 1018.0 |
| 20260506112004 | 31 | 209 | 0.0 | 0.0 | 0.00 | 0.75 | 0.02 | 94 | 1018.0 |
| 20260506111513 | 31 | 191 | 0.0 | 0.0 | 0.00 | 0.75 | 0.02 | 94 | 1018.0 |
| 20260506111009 | 31 | 250 | 0.0 | 0.0 | 0.00 | 0.75 | 0.02 | 94 | 1017.8 |
| 20260506110507 | 31 | 53 | 0.0 | 0.0 | 0.00 | 0.75 | 0.02 | 94 | 1017.8 |
| 20260506110016 | 32 | 53 | 0.0 | 0.0 | 0.00 | 0.76 | 0.02 | 94 | 1017.8 |
| 20260506105512 | 32 | 53 | 0.0 | 0.0 | 0.00 | 0.76 | 0.02 | 94 | 1017.8 |
| 20260506105007 | 32 | 53 | 0.0 | 0.0 | 0.00 | 0.76 | 0.02 | 94 | 1017.8 |
| 20260506104520 | 32 | 54 | 0.0 | 0.0 | 0.00 | 0.76 | 0.02 | 94 | 1017.7 |
| 20260506104008 | 32 | 53 | 0.0 | 0.0 | 0.00 | 0.77 | 0.02 | 94 | 1017.7 |
| 20260506103512 | 32 | 43 | 0.0 | 0.0 | 0.00 | 0.77 | 0.02 | 94 | 1017.6 |
| 20260506103025 | 32 | 50 | 0.0 | 0.0 | 0.00 | 0.77 | 0.02 | 94 | 1017.5 |
| 20260506102511 | 32 | 335 | 0.0 | 0.0 | 0.00 | 0.77 | 0.02 | 94 | 1017.5 |
| 20260506102011 | 32 | 335 | 0.0 | 0.0 | 0.00 | 0.78 | 0.02 | 94 | 1017.6 |
| 20260506101526 | 32 | 335 | 0.0 | 0.0 | 0.00 | 0.78 | 0.02 | 94 | 1017.8 |
| 20260506101015 | 32 | 259 | 0.0 | 0.0 | 0.00 | 0.79 | 0.02 | 94 | 1017.8 |
| 20260506100508 | 32 | 329 | 0.0 | 0.0 | 0.00 | 0.79 | 0.02 | 94 | 1017.5 |
| 20260506095009 | 32 | 275 | 0.0 | 0.0 | 0.01 | 0.82 | 0.02 | 94 | 1017.7 |
| 20260506094007 | 32 | 37 | 0.0 | 0.0 | 0.01 | 0.83 | 0.02 | 94 | 1017.8 |
| 20260506093511 | 32 | 37 | 0.0 | 0.0 | 0.01 | 0.83 | 0.02 | 94 | 1017.7 |
| 20260506093037 | 32 | 37 | 0.0 | 0.0 | 0.01 | 0.84 | 0.02 | 94 | 1017.7 |
| 20260506092510 | 32 | 37 | 0.0 | 0.0 | 0.01 | 0.84 | 0.02 | 94 | 1017.6 |
| 20260506092013 | 32 | 37 | 0.0 | 0.0 | 0.01 | 0.84 | 0.02 | 94 | 1017.4 |
| 20260506091526 | 32 | 37 | 0.0 | 0.0 | 0.01 | 0.85 | 0.02 | 94 | 1017.5 |
| 20260506091008 | 32 | 37 | 0.0 | 0.0 | 0.01 | 0.85 | 0.02 | 94 | 1017.6 |
| 20260506090508 | 32 | 37 | 0.0 | 0.0 | 0.01 | 0.85 | 0.02 | 94 | 1017.7 |
| 20260506090027 | 32 | 37 | 0.0 | 0.0 | 0.01 | 0.86 | 0.02 | 94 | 1017.5 |
| 20260506085508 | 32 | 37 | 0.0 | 0.0 | 0.01 | 0.86 | 0.02 | 94 | 1017.6 |
| 20260506085008 | 32 | 37 | 0.0 | 0.0 | 0.00 | 0.85 | 0.01 | 94 | 1017.6 |
| 20260506084517 | 32 | 37 | 0.0 | 0.0 | 0.00 | 0.86 | 0.01 | 94 | 1017.5 |
| 20260506084008 | 32 | 37 | 0.0 | 0.0 | 0.00 | 0.86 | 0.01 | 94 | 1017.6 |
| 20260506083510 | 32 | 37 | 0.0 | 0.0 | 0.00 | 0.87 | 0.01 | 94 | 1017.6 |
| 20260506083019 | 32 | 37 | 0.0 | 0.0 | 0.00 | 0.87 | 0.01 | 94 | 1017.6 |
| 20260506082513 | 32 | 37 | 0.0 | 0.0 | 0.00 | 0.88 | 0.01 | 94 | 1017.6 |
| 20260506082013 | 32 | 37 | 0.0 | 0.0 | 0.00 | 0.89 | 0.01 | 94 | 1017.8 |
| 20260506081524 | 32 | 37 | 0.0 | 0.0 | 0.00 | 0.90 | 0.01 | 94 | 1017.8 |
| 20260506081011 | 32 | 37 | 0.0 | 0.0 | 0.00 | 0.92 | 0.01 | 94 | 1017.7 |
| 20260506080511 | 32 | 37 | 0.0 | 0.0 | 0.00 | 0.93 | 0.01 | 94 | 1017.8 |
| 20260506073514 | 32 | 283 | 0.0 | 0.0 | 0.01 | 0.93 | 0.01 | 94 | 1017.9 |
| 20260506073018 | 32 | 283 | 0.0 | 1.0 | 0.01 | 0.93 | 0.01 | 94 | 1018.0 |
| 20260506072512 | 32 | 283 | 0.0 | 1.0 | 0.01 | 0.93 | 0.01 | 94 | 1018.0 |
| 20260506072009 | 32 | 283 | 0.0 | 1.0 | 0.01 | 0.94 | 0.01 | 94 | 1018.0 |
| 20260506071524 | 32 | 2 | 0.0 | 1.0 | 0.01 | 0.94 | 0.01 | 94 | 1017.9 |
| 20260506071006 | 32 | 205 | 0.0 | 1.0 | 0.01 | 0.94 | 0.01 | 94 | 1017.8 |
| 20260506070507 | 32 | 205 | 0.0 | 1.0 | 0.01 | 0.94 | 0.01 | 94 | 1017.8 |
| 20260506062503 | 32 | 358 | 0.0 | 3.0 | 0.00 | 0.99 | 0.00 | 93 | 1017.8 |
| 20260506062004 | 32 | 50 | 0.0 | 3.0 | 0.00 | 0.99 | 0.00 | 93 | 1017.8 |
| 20260506061507 | 32 | 85 | 0.0 | 4.0 | 0.00 | 0.99 | 0.00 | 93 | 1017.7 |
| 20260506061004 | 32 | 348 | 1.0 | 4.0 | 0.00 | 0.99 | 0.00 | 93 | 1017.6 |
| 20260506060504 | 32 | 41 | 0.0 | 3.0 | 0.00 | 0.99 | 0.00 | 93 | 1017.6 |
| 20260506051003 | 33 | 4 | 0.0 | 0.0 | 0.01 | 0.99 | 0.99 | 93 | 1016.8 |
| 20260506050503 | 33 | 4 | 0.0 | 0.0 | 0.01 | 0.99 | 0.99 | 93 | 1016.8 |
| 20260506045005 | 33 | 4 | 0.0 | 0.0 | 0.01 | 0.98 | 0.98 | 93 | 1016.8 |
| 20260506044510 | 33 | 4 | 0.0 | 0.0 | 0.01 | 0.98 | 0.98 | 93 | 1016.8 |
| 20260506044006 | 33 | 4 | 0.0 | 0.0 | 0.01 | 0.98 | 0.98 | 93 | 1016.8 |
| 20260506043503 | 33 | 4 | 0.0 | 0.0 | 0.01 | 0.98 | 0.98 | 93 | 1016.8 |
| 20260506043008 | 33 | 4 | 0.0 | 0.0 | 0.01 | 0.98 | 0.98 | 93 | 1016.7 |
| 20260506042504 | 33 | 4 | 0.0 | 0.0 | 0.02 | 0.98 | 0.98 | 93 | 1016.7 |
| 20260506042007 | 33 | 4 | 0.0 | 0.0 | 0.02 | 0.98 | 0.98 | 93 | 1016.8 |
| 20260506041514 | 33 | 4 | 0.0 | 0.0 | 0.02 | 0.98 | 0.98 | 93 | 1016.7 |
| 20260506041008 | 33 | 4 | 0.0 | 0.0 | 0.02 | 0.98 | 0.98 | 93 | 1016.7 |
| 20260506040511 | 33 | 4 | 0.0 | 0.0 | 0.02 | 0.98 | 0.98 | 93 | 1016.6 |
| 20260506040019 | 33 | 4 | 0.0 | 0.0 | 0.02 | 0.98 | 0.98 | 93 | 1016.6 |
| 20260506035503 | 33 | 4 | 0.0 | 0.0 | 0.01 | 0.97 | 0.97 | 93 | 1016.5 |
| 20260506033505 | 33 | 4 | 0.0 | 0.0 | 0.01 | 0.97 | 0.97 | 93 | 1016.4 |
| 20260506033006 | 33 | 4 | 0.0 | 0.0 | 0.02 | 0.97 | 0.97 | 93 | 1016.4 |
| 20260506032503 | 33 | 4 | 0.0 | 0.0 | 0.01 | 0.96 | 0.96 | 93 | 1016.3 |
| 20260506032011 | 33 | 4 | 0.0 | 0.0 | 0.01 | 0.96 | 0.96 | 93 | 1016.2 |
| 20260506031513 | 33 | 4 | 0.0 | 0.0 | 0.01 | 0.96 | 0.96 | 93 | 1016.1 |
| 20260506025010 | 33 | 4 | 0.0 | 0.0 | 0.01 | 0.96 | 0.96 | 93 | 1016.0 |
| 20260506024521 | 33 | 4 | 0.0 | 0.0 | 0.01 | 0.96 | 0.96 | 93 | 1015.9 |
| 20260506021507 | 33 | 4 | 0.0 | 0.0 | 0.01 | 0.95 | 0.95 | 93 | 1015.1 |
| 20260506020016 | 33 | 4 | 0.0 | 0.0 | 0.01 | 0.95 | 0.95 | 93 | 1014.9 |
| 20260506014520 | 33 | 4 | 0.0 | 1.0 | 0.01 | 0.96 | 0.95 | 93 | 1014.8 |
| 20260506014008 | 33 | 3 | 0.0 | 0.0 | 0.01 | 0.96 | 0.95 | 93 | 1014.8 |
| 20260506013021 | 33 | 3 | 0.0 | 1.0 | 0.01 | 0.96 | 0.95 | 93 | 1014.6 |
| 20260506011506 | 33 | 3 | 0.0 | 0.0 | 0.00 | 0.95 | 0.94 | 93 | 1014.4 |
| 20260506005003 | 33 | 3 | 0.0 | 0.0 | 0.00 | 0.97 | 0.94 | 93 | 1014.5 |
| 20260506004522 | 33 | 3 | 0.0 | 1.0 | 0.00 | 0.97 | 0.94 | 93 | 1014.6 |
| 20260506004005 | 33 | 3 | 0.0 | 2.0 | 0.00 | 0.97 | 0.94 | 93 | 1014.6 |
| 20260506003508 | 33 | 3 | 0.0 | 2.0 | 0.00 | 0.98 | 0.94 | 93 | 1014.5 |
| 20260506002011 | 33 | 321 | 0.0 | 2.0 | 0.00 | 0.98 | 0.94 | 93 | 1014.3 |
| 20260506001524 | 33 | 321 | 0.0 | 2.0 | 0.00 | 0.98 | 0.94 | 93 | 1014.4 |
| 20260506001012 | 33 | 316 | 0.0 | 3.0 | 0.01 | 0.99 | 0.94 | 92 | 1014.3 |
| 20260506000504 | 33 | 351 | 0.0 | 3.0 | 0.01 | 0.99 | 0.94 | 93 | 1014.3 |
| 20260506000007 | 33 | 355 | 0.0 | 3.0 | 0.01 | 0.99 | 0.94 | 92 | 1014.3 |
| 20260505235504 | 33 | 341 | 1.0 | 4.0 | 0.01 | 0.99 | 0.94 | 92 | 1014.3 |
| 20260505234003 | 33 | 280 | 0.0 | 2.0 | 0.01 | 0.99 | 0.94 | 92 | 1013.9 |
| 20260505233505 | 33 | 281 | 0.0 | 2.0 | 0.01 | 0.99 | 0.94 | 92 | 1013.9 |
| 20260505232508 | 33 | 275 | 0.0 | 2.0 | 0.02 | 1.01 | 0.94 | 92 | 1014.0 |
| 20260505231528 | 33 | 270 | 0.0 | 3.0 | 0.02 | 1.01 | 0.94 | 92 | 1014.3 |
| 20260505231006 | 33 | 270 | 0.0 | 3.0 | 0.02 | 1.00 | 0.93 | 92 | 1014.3 |
| 20260505230509 | 33 | 287 | 0.0 | 3.0 | 0.02 | 1.00 | 0.93 | 92 | 1014.2 |
| 20260505230034 | 33 | 287 | 0.0 | 3.0 | 0.02 | 1.00 | 0.93 | 92 | 1014.3 |
| 20260505225508 | 33 | 300 | 0.0 | 4.0 | 0.03 | 1.00 | 0.93 | 92 | 1014.3 |
| 20260505225005 | 33 | 259 | 1.0 | 4.0 | 0.03 | 1.00 | 0.93 | 92 | 1014.3 |
| 20260505224506 | 34 | 270 | 1.0 | 4.0 | 0.04 | 1.00 | 0.93 | 92 | 1014.3 |
| 20260505224004 | 34 | 253 | 1.0 | 4.0 | 0.05 | 1.00 | 0.93 | 93 | 1014.3 |
| 20260505223507 | 34 | 344 | 1.0 | 4.0 | 0.05 | 1.00 | 0.93 | 93 | 1014.2 |
| 20260505223011 | 33 | 34 | 0.0 | 6.0 | 0.06 | 1.00 | 0.93 | 92 | 1014.1 |
| 20260505222511 | 34 | 310 | 1.0 | 6.0 | 0.05 | 0.99 | 0.92 | 93 | 1014.2 |
| 20260505222013 | 34 | 270 | 2.0 | 6.0 | 0.05 | 0.99 | 0.92 | 93 | 1014.1 |
| 20260505221519 | 33 | 283 | 1.0 | 8.0 | 0.06 | 0.99 | 0.92 | 93 | 1014.1 |
| 20260505220506 | 33 | 258 | 3.0 | 8.0 | 0.06 | 0.98 | 0.91 | 92 | 1014.1 |
| 20260505220024 | 33 | 49 | 1.0 | 6.0 | 0.06 | 0.98 | 0.91 | 92 | 1013.9 |
| 20260505215508 | 33 | 290 | 1.0 | 6.0 | 0.06 | 0.97 | 0.90 | 92 | 1013.9 |
| 20260505215011 | 33 | 215 | 2.0 | 8.0 | 0.06 | 0.97 | 0.90 | 92 | 1014.1 |
| 20260505214525 | 33 | 27 | 1.0 | 8.0 | 0.06 | 0.96 | 0.89 | 92 | 1014.1 |
| 20260505214009 | 33 | 347 | 3.0 | 8.0 | 0.05 | 0.95 | 0.88 | 92 | 1014.1 |
| 20260505213503 | 33 | 19 | 2.0 | 7.0 | 0.05 | 0.95 | 0.88 | 92 | 1014.0 |
| 20260505213013 | 33 | 8 | 2.0 | 7.0 | 0.05 | 0.94 | 0.87 | 92 | 1014.1 |
| 20260505212506 | 33 | 324 | 2.0 | 7.0 | 0.05 | 0.94 | 0.87 | 92 | 1014.1 |
| 20260505212007 | 33 | 283 | 1.0 | 8.0 | 0.06 | 0.94 | 0.87 | 92 | 1014.0 |
| 20260505211523 | 33 | 314 | 2.0 | 8.0 | 0.06 | 0.93 | 0.86 | 92 | 1014.1 |
| 20260505211006 | 33 | 307 | 3.0 | 9.0 | 0.06 | 0.93 | 0.86 | 92 | 1014.1 |
| 20260505210510 | 33 | 9 | 2.0 | 9.0 | 0.05 | 0.92 | 0.85 | 92 | 1014.1 |